Time,TemperatureF,DewpointF,PressureIn,WindDirection,WindDirectionDegrees,WindSpeedMPH,WindSpeedGustMPH,Humidity,HourlyPrecipIn,Conditions,Clouds,dailyrainin,SolarRadiationWatts/m^2,SoftwareType,DateUTC
2013-02-24 00:00:00,50.2,22.9,30.02,ENE,78,0.0,16.0,34,0.00,,,0.00,0.00,VWS V14.00,2013-02-24 08:00:00,
2013-02-24 00:05:00,50.4,23.1,30.03,NE,34,0.0,13.0,34,0.00,,,0.00,0.00,VWS V14.00,2013-02-24 08:05:00,
2013-02-24 00:10:00,50.5,22.5,30.03,NNE,22,0.0,13.0,33,0.00,,,0.00,0.00,VWS V14.00,2013-02-24 08:10:00,
2013-02-24 00:15:00,50.4,20.9,30.04,ENE,72,1.0,18.0,31,0.00,,,0.00,0.00,VWS V14.00,2013-02-24 08:15:00,
2013-02-24 00:20:00,50.5,21.0,30.03,SSW,210,1.0,18.0,31,0.00,,,0.00,0.00,VWS V14.00,2013-02-24 08:20:00,
2013-02-24 00:25:00,50.4,21.7,30.02,NNE,32,1.0,18.0,32,0.00,,,0.00,0.00,VWS V14.00,2013-02-24 08:25:00,
2013-02-24 00:29:00,50.4,21.7,30.02,NE,51,0.0,18.0,32,0.00,,,0.00,0.00,VWS V14.00,2013-02-24 08:29:00,
2013-02-24 00:34:00,50.2,21.5,30.02,East,94,0.0,4.0,32,0.00,,,0.00,0.00,VWS V14.00,2013-02-24 08:34:00,
2013-02-24 00:39:00,50.1,21.4,30.02,NE,44,0.0,4.0,32,0.00,,,0.00,0.00,VWS V14.00,2013-02-24 08:39:00,
2013-02-24 00:44:00,49.9,20.5,30.02,NE,34,0.0,5.0,31,0.00,,,0.00,0.00,VWS V14.00,2013-02-24 08:44:00,
2013-02-24 00:49:00,49.8,17.2,30.01,East,91,0.0,9.0,27,0.00,,,0.00,0.00,VWS V14.00,2013-02-24 08:49:00,
2013-02-24 00:54:00,49.6,17.0,29.99,NNE,17,4.0,11.0,27,0.00,,,0.00,0.00,VWS V14.00,2013-02-24 08:54:00,
2013-02-24 00:59:00,49.6,15.2,30.00,NE,40,1.0,15.0,25,0.00,,,0.00,0.00,VWS V14.00,2013-02-24 08:59:00,
2013-02-24 01:04:00,49.6,14.3,30.01,NE,53,2.0,12.0,24,0.00,,,0.00,0.00,VWS V14.00,2013-02-24 09:04:00,
2013-02-24 01:09:00,49.6,13.3,30.01,NNE,28,5.0,19.0,23,0.00,,,0.00,0.00,VWS V14.00,2013-02-24 09:09:00,
2013-02-24 01:14:00,49.6,13.3,30.01,ENE,73,9.0,19.0,23,0.00,,,0.00,0.00,VWS V14.00,2013-02-24 09:14:00,
2013-02-24 01:19:00,49.6,12.3,30.00,North,5,1.0,19.0,22,0.00,,,0.00,0.00,VWS V14.00,2013-02-24 09:19:00,
2013-02-24 01:24:00,49.6,12.3,30.01,NE,48,2.0,19.0,22,0.00,,,0.00,0.00,VWS V14.00,2013-02-24 09:24:00,
2013-02-24 01:30:00,49.5,12.2,30.02,NE,47,0.0,0.0,22,0.00,,,0.00,0.00,VWS V14.00,2013-02-24 09:30:00,
2013-02-24 01:35:00,49.5,12.2,30.01,NNE,33,5.0,12.0,22,0.00,,,0.00,0.00,VWS V14.00,2013-02-24 09:35:00,
2013-02-24 01:40:00,49.4,11.1,30.02,NNE,13,2.0,12.0,21,0.00,,,0.00,0.00,VWS V14.00,2013-02-24 09:40:00,
2013-02-24 01:45:00,49.4,11.1,30.02,ESE,105,2.0,12.0,21,0.00,,,0.00,0.00,VWS V14.00,2013-02-24 09:45:00,
2013-02-24 01:50:00,49.2,10.9,30.01,North,5,6.0,12.0,21,0.00,,,0.00,0.00,VWS V14.00,2013-02-24 09:50:00,
2013-02-24 01:55:00,49.2,9.9,30.01,NNE,29,1.0,12.0,20,0.00,,,0.00,0.00,VWS V14.00,2013-02-24 09:55:00,
2013-02-24 02:00:00,49.1,9.8,30.01,NNE,28,0.0,12.0,20,0.00,,,0.00,0.00,VWS V14.00,2013-02-24 10:00:00,
2013-02-24 02:05:00,49.1,9.8,30.01,NE,38,0.0,12.0,20,0.00,,,0.00,0.00,VWS V14.00,2013-02-24 10:05:00,
2013-02-24 02:10:00,49.1,9.8,30.01,East,98,3.0,12.0,20,0.00,,,0.00,0.00,VWS V14.00,2013-02-24 10:10:00,
2013-02-24 02:15:00,49.1,8.6,30.01,NNE,21,4.0,12.0,19,0.00,,,0.00,0.00,VWS V14.00,2013-02-24 10:15:00,
2013-02-24 02:20:00,49.4,8.9,30.01,NE,53,0.0,18.0,19,0.00,,,0.00,0.00,VWS V14.00,2013-02-24 10:20:00,
2013-02-24 02:25:00,49.4,7.7,30.01,ENE,62,6.0,18.0,18,0.00,,,0.00,0.00,VWS V14.00,2013-02-24 10:25:00,
2013-02-24 02:30:00,49.5,7.8,30.00,North,360,16.0,18.0,18,0.00,,,0.00,0.00,VWS V14.00,2013-02-24 10:30:00,
2013-02-24 02:35:00,49.4,7.7,30.00,ENE,57,8.0,21.0,18,0.00,,,0.00,0.00,VWS V14.00,2013-02-24 10:35:00,
2013-02-24 02:40:00,49.5,6.5,30.00,NNE,23,9.0,21.0,17,0.00,,,0.00,0.00,VWS V14.00,2013-02-24 10:40:00,
2013-02-24 02:45:00,49.4,5.1,30.00,NE,46,11.0,25.0,16,0.00,,,0.00,0.00,VWS V14.00,2013-02-24 10:45:00,
2013-02-24 02:50:00,49.2,4.9,30.01,NE,47,0.0,25.0,16,0.00,,,0.00,0.00,VWS V14.00,2013-02-24 10:50:00,
2013-02-24 02:55:00,49.4,3.7,30.00,NE,48,4.0,25.0,15,0.00,,,0.00,0.00,VWS V14.00,2013-02-24 10:55:00,
2013-02-24 03:00:00,49.4,3.7,30.01,NE,42,0.0,25.0,15,0.00,,,0.00,0.00,VWS V14.00,2013-02-24 11:00:00,
2013-02-24 03:05:00,49.4,2.2,30.01,NNE,26,7.0,12.0,14,0.00,,,0.00,0.00,VWS V14.00,2013-02-24 11:05:00,
2013-02-24 03:10:00,49.4,0.6,30.01,ESE,103,6.0,14.0,13,0.00,,,0.00,0.00,VWS V14.00,2013-02-24 11:10:00,
2013-02-24 03:15:00,49.2,-1.2,30.01,NE,46,5.0,33.0,12,0.00,,,0.00,0.00,VWS V14.00,2013-02-24 11:15:00,
2013-02-24 03:20:00,49.1,-1.3,30.01,East,79,0.0,33.0,12,0.00,,,0.00,0.00,VWS V14.00,2013-02-24 11:20:00,
2013-02-24 03:25:00,48.9,0.2,30.02,NE,41,1.0,33.0,13,0.00,,,0.00,0.00,VWS V14.00,2013-02-24 11:25:00,
2013-02-24 03:30:00,48.8,0.2,30.02,NE,38,7.0,33.0,13,0.00,,,0.00,0.00,VWS V14.00,2013-02-24 11:30:00,
2013-02-24 03:35:00,48.6,0.0,30.02,ESE,104,2.0,9.0,13,0.00,,,0.00,0.00,VWS V14.00,2013-02-24 11:35:00,
2013-02-24 03:40:00,48.5,-0.1,30.02,NNE,26,8.0,9.0,13,0.00,,,0.00,0.00,VWS V14.00,2013-02-24 11:40:00,
2013-02-24 03:45:00,48.2,-0.3,30.02,NE,42,1.0,10.0,13,0.00,,,0.00,0.00,VWS V14.00,2013-02-24 11:45:00,
2013-02-24 03:50:00,48.2,-0.3,30.01,NE,34,10.0,19.0,13,0.00,,,0.00,0.00,VWS V14.00,2013-02-24 11:50:00,
2013-02-24 03:55:00,48.0,-0.5,30.01,NE,35,10.0,19.0,13,0.00,,,0.00,0.00,VWS V14.00,2013-02-24 11:55:00,
2013-02-24 04:00:00,48.3,-0.2,30.01,NE,43,8.0,19.0,13,0.00,,,0.00,0.00,VWS V14.00,2013-02-24 12:00:00,
2013-02-24 04:05:00,48.5,-0.1,30.01,NE,55,6.0,15.0,13,0.00,,,0.00,0.00,VWS V14.00,2013-02-24 12:05:00,
2013-02-24 04:10:00,48.5,-0.1,30.02,ENE,68,3.0,22.0,13,0.00,,,0.00,0.00,VWS V14.00,2013-02-24 12:10:00,
2013-02-24 04:15:00,48.3,-0.2,30.03,NE,41,7.0,22.0,13,0.00,,,0.00,0.00,VWS V14.00,2013-02-24 12:15:00,
2013-02-24 04:20:00,48.2,-0.3,30.03,East,81,0.0,22.0,13,0.00,,,0.00,0.00,VWS V14.00,2013-02-24 12:20:00,
2013-02-24 04:25:00,48.0,-0.5,30.02,ENE,73,0.0,22.0,13,0.00,,,0.00,0.00,VWS V14.00,2013-02-24 12:25:00,
2013-02-24 04:30:00,47.9,-0.6,30.03,East,81,0.0,24.0,13,0.00,,,0.00,0.00,VWS V14.00,2013-02-24 12:30:00,
2013-02-24 04:35:00,47.7,-0.7,30.03,ENE,78,5.0,19.0,13,0.00,,,0.00,0.00,VWS V14.00,2013-02-24 12:35:00,
2013-02-24 04:40:00,47.7,-0.7,30.03,NE,45,1.0,23.0,13,0.00,,,0.00,0.00,VWS V14.00,2013-02-24 12:40:00,
2013-02-24 04:45:00,47.6,-0.8,30.03,NE,44,6.0,25.0,13,0.00,,,0.00,0.00,VWS V14.00,2013-02-24 12:45:00,
2013-02-24 04:50:00,47.4,-1.0,30.03,North,10,2.0,25.0,13,0.00,,,0.00,0.00,VWS V14.00,2013-02-24 12:50:00,
2013-02-24 04:55:00,47.4,-1.0,30.03,NNE,29,7.0,25.0,13,0.00,,,0.00,0.00,VWS V14.00,2013-02-24 12:55:00,
2013-02-24 05:00:00,47.4,-1.0,30.03,SSE,158,6.0,25.0,13,0.00,,,0.00,0.00,VWS V14.00,2013-02-24 13:00:00,
2013-02-24 05:05:00,47.3,0.5,30.03,East,100,0.0,10.0,14,0.00,,,0.00,0.00,VWS V14.00,2013-02-24 13:05:00,
2013-02-24 05:10:00,47.3,-1.0,30.03,North,11,11.0,16.0,13,0.00,,,0.00,0.00,VWS V14.00,2013-02-24 13:10:00,
2013-02-24 05:15:00,47.3,-1.0,30.03,ENE,60,4.0,22.0,13,0.00,,,0.00,0.00,VWS V14.00,2013-02-24 13:15:00,
2013-02-24 05:20:00,47.3,-1.0,30.02,NE,51,6.0,22.0,13,0.00,,,0.00,0.00,VWS V14.00,2013-02-24 13:20:00,
2013-02-24 05:25:00,47.4,-1.0,30.02,NNE,14,13.0,24.0,13,0.00,,,0.00,0.00,VWS V14.00,2013-02-24 13:25:00,
2013-02-24 05:30:00,47.6,-0.8,30.03,NNE,28,2.0,24.0,13,0.00,,,0.00,0.00,VWS V14.00,2013-02-24 13:30:00,
2013-02-24 05:35:00,47.6,-2.5,30.03,ENE,65,7.0,16.0,12,0.00,,,0.00,0.00,VWS V14.00,2013-02-24 13:35:00,
2013-02-24 05:40:00,47.6,-2.5,30.03,NNE,17,7.0,16.0,12,0.00,,,0.00,0.00,VWS V14.00,2013-02-24 13:40:00,
2013-02-24 05:45:00,47.6,-2.5,30.04,SE,142,0.0,16.0,12,0.00,,,0.00,0.00,VWS V14.00,2013-02-24 13:45:00,
2013-02-24 05:50:00,47.6,-2.5,30.03,North,355,5.0,16.0,12,0.00,,,0.00,0.00,VWS V14.00,2013-02-24 13:50:00,
2013-02-24 05:55:00,47.6,-2.5,30.04,NE,47,1.0,16.0,12,0.00,,,0.00,0.00,VWS V14.00,2013-02-24 13:55:00,
2013-02-24 06:00:00,47.7,-2.4,30.03,NNE,19,3.0,16.0,12,0.00,,,0.00,0.00,VWS V14.00,2013-02-24 14:00:00,
2013-02-24 06:05:00,47.6,-2.5,30.04,North,355,0.0,15.0,12,0.00,,,0.00,0.00,VWS V14.00,2013-02-24 14:05:00,
2013-02-24 06:10:00,47.6,-2.5,30.05,ENE,78,7.0,19.0,12,0.00,,,0.00,0.00,VWS V14.00,2013-02-24 14:10:00,
2013-02-24 06:15:00,47.7,-2.4,30.04,NE,44,10.0,19.0,12,0.00,,,0.00,0.00,VWS V14.00,2013-02-24 14:15:00,
2013-02-24 06:20:00,47.7,-2.4,30.05,NNE,24,0.0,19.0,12,0.00,,,0.00,0.00,VWS V14.00,2013-02-24 14:20:00,
2013-02-24 06:25:00,47.7,-2.4,30.05,NE,35,1.0,19.0,12,0.00,,,0.00,0.00,VWS V14.00,2013-02-24 14:25:00,
2013-02-24 06:30:00,47.7,-4.2,30.05,NNE,27,0.0,19.0,11,0.00,,,0.00,5.00,VWS V14.00,2013-02-24 14:30:00,
2013-02-24 06:35:00,47.9,-4.1,30.05,NE,46,2.0,6.0,11,0.00,,,0.00,9.00,VWS V14.00,2013-02-24 14:35:00,
2013-02-24 06:40:00,47.9,-4.1,30.06,North,9,0.0,16.0,11,0.00,,,0.00,11.00,VWS V14.00,2013-02-24 14:40:00,
2013-02-24 06:45:00,47.9,-2.3,30.06,NNE,17,15.0,16.0,12,0.00,,,0.00,12.00,VWS V14.00,2013-02-24 14:45:00,
2013-02-24 06:50:00,47.9,-4.1,30.06,NNW,332,11.0,16.0,11,0.00,,,0.00,14.00,VWS V14.00,2013-02-24 14:50:00,
2013-02-24 06:55:00,47.9,-4.1,30.06,WNW,290,3.0,16.0,11,0.00,,,0.00,18.00,VWS V14.00,2013-02-24 14:55:00,
2013-02-24 07:00:00,47.9,-2.3,30.07,ESE,113,0.0,16.0,12,0.00,,,0.00,19.00,VWS V14.00,2013-02-24 15:00:00,
2013-02-24 07:05:00,48.0,-2.2,30.07,ESE,110,1.0,7.0,12,0.00,,,0.00,21.00,VWS V14.00,2013-02-24 15:05:00,
2013-02-24 07:10:00,48.0,-2.2,30.08,NNE,22,9.0,14.0,12,0.00,,,0.00,23.00,VWS V14.00,2013-02-24 15:10:00,
2013-02-24 07:15:00,48.3,-1.9,30.08,East,83,1.0,16.0,12,0.00,,,0.00,23.00,VWS V14.00,2013-02-24 15:15:00,
2013-02-24 07:20:00,48.3,-1.9,30.08,NE,41,0.0,16.0,12,0.00,,,0.00,25.00,VWS V14.00,2013-02-24 15:20:00,
2013-02-24 07:25:00,48.3,-1.9,30.08,ENE,74,3.0,16.0,12,0.00,,,0.00,25.00,VWS V14.00,2013-02-24 15:25:00,
2013-02-24 07:30:00,48.6,-3.5,30.09,ENE,71,5.0,16.0,11,0.00,,,0.00,28.00,VWS V14.00,2013-02-24 15:30:00,
2013-02-24 07:35:00,48.9,-3.3,30.09,NE,38,5.0,16.0,11,0.00,,,0.00,28.00,VWS V14.00,2013-02-24 15:35:00,
2013-02-24 07:40:00,48.9,-3.3,30.09,NNW,338,0.0,22.0,11,0.00,,,0.00,33.00,VWS V14.00,2013-02-24 15:40:00,
2013-02-24 07:45:00,49.1,-3.1,30.09,NE,45,0.0,22.0,11,0.00,,,0.00,35.00,VWS V14.00,2013-02-24 15:45:00,
2013-02-24 07:50:00,49.2,-3.1,30.10,NE,46,0.0,22.0,11,0.00,,,0.00,130.00,VWS V14.00,2013-02-24 15:50:00,
2013-02-24 07:55:00,49.2,-3.1,30.10,East,80,5.0,31.0,11,0.00,,,0.00,195.00,VWS V14.00,2013-02-24 15:55:00,
2013-02-24 08:00:00,49.4,-2.9,30.10,ENE,63,0.0,31.0,11,0.00,,,0.00,44.00,VWS V14.00,2013-02-24 16:00:00,
2013-02-24 08:05:00,49.4,-1.1,30.10,NE,45,7.0,16.0,12,0.00,,,0.00,54.00,VWS V14.00,2013-02-24 16:05:00,
2013-02-24 08:10:00,49.5,-2.8,30.11,North,360,7.0,26.0,11,0.00,,,0.00,39.00,VWS V14.00,2013-02-24 16:10:00,
2013-02-24 08:15:00,49.5,-1.0,30.11,East,96,6.0,26.0,12,0.00,,,0.00,37.00,VWS V14.00,2013-02-24 16:15:00,
2013-02-24 08:20:00,49.6,-0.9,30.10,ENE,59,5.0,26.0,12,0.00,,,0.00,37.00,VWS V14.00,2013-02-24 16:20:00,
2013-02-24 08:25:00,49.6,-0.9,30.11,East,87,0.0,26.0,12,0.00,,,0.00,35.00,VWS V14.00,2013-02-24 16:25:00,
2013-02-24 08:30:00,49.8,-0.8,30.10,NE,38,6.0,26.0,12,0.00,,,0.00,37.00,VWS V14.00,2013-02-24 16:30:00,
2013-02-24 08:35:00,49.8,-0.8,30.10,SE,125,2.0,8.0,12,0.00,,,0.00,44.00,VWS V14.00,2013-02-24 16:35:00,
2013-02-24 08:40:00,50.1,-0.5,30.11,SE,133,0.0,13.0,12,0.00,,,0.00,39.00,VWS V14.00,2013-02-24 16:40:00,
2013-02-24 08:45:00,50.2,1.3,30.10,SSE,151,0.0,13.0,13,0.00,,,0.00,39.00,VWS V14.00,2013-02-24 16:45:00,
2013-02-24 08:50:00,50.4,1.4,30.11,NNE,31,12.0,13.0,13,0.00,,,0.00,39.00,VWS V14.00,2013-02-24 16:50:00,
2013-02-24 08:55:00,50.5,-0.2,30.10,NE,44,2.0,19.0,12,0.00,,,0.00,40.00,VWS V14.00,2013-02-24 16:55:00,
2013-02-24 09:00:00,50.7,-1.9,30.10,NNE,13,1.0,19.0,11,0.00,,,0.00,40.00,VWS V14.00,2013-02-24 17:00:00,
2013-02-24 09:05:00,50.8,0.0,30.10,NE,42,7.0,14.0,12,0.00,,,0.00,42.00,VWS V14.00,2013-02-24 17:05:00,
2013-02-24 09:10:00,51.1,2.0,30.11,SW,229,5.0,14.0,13,0.00,,,0.00,494.00,VWS V14.00,2013-02-24 17:10:00,
2013-02-24 09:15:00,51.3,0.4,30.11,NNE,28,0.0,23.0,12,0.00,,,0.00,510.00,VWS V14.00,2013-02-24 17:15:00,
2013-02-24 09:20:00,52.2,1.1,30.11,WNW,292,0.0,23.0,12,0.00,,,0.00,526.00,VWS V14.00,2013-02-24 17:20:00,
2013-02-24 09:25:00,52.5,-0.5,30.12,NE,51,4.0,23.0,11,0.00,,,0.00,541.00,VWS V14.00,2013-02-24 17:25:00,
2013-02-24 09:30:00,52.3,-0.6,30.11,NE,35,7.0,25.0,11,0.00,,,0.00,554.00,VWS V14.00,2013-02-24 17:30:00,
2013-02-24 09:35:00,52.5,-0.5,30.11,NE,54,0.0,14.0,11,0.00,,,0.00,568.00,VWS V14.00,2013-02-24 17:35:00,
2013-02-24 09:40:00,53.1,1.8,30.11,East,82,0.0,14.0,12,0.00,,,0.00,582.00,VWS V14.00,2013-02-24 17:40:00,
2013-02-24 09:45:00,53.3,0.1,30.11,East,92,0.0,14.0,11,0.00,,,0.00,592.00,VWS V14.00,2013-02-24 17:45:00,
2013-02-24 09:50:00,53.9,0.6,30.11,SW,229,0.0,14.0,11,0.00,,,0.00,605.00,VWS V14.00,2013-02-24 17:50:00,
2013-02-24 09:55:00,54.5,1.1,30.12,NE,50,0.0,14.0,11,0.00,,,0.00,621.00,VWS V14.00,2013-02-24 17:55:00,
2013-02-24 10:00:00,54.4,2.9,30.12,NW,310,12.0,14.0,12,0.00,,,0.00,635.00,VWS V14.00,2013-02-24 18:00:00,
2013-02-24 10:05:00,54.8,-0.7,30.11,WNW,292,0.0,5.0,10,0.00,,,0.00,643.00,VWS V14.00,2013-02-24 18:05:00,
2013-02-24 10:10:00,54.5,2.9,30.11,North,355,8.0,12.0,12,0.00,,,0.00,657.00,VWS V14.00,2013-02-24 18:10:00,
2013-02-24 10:15:00,55.6,1.9,30.11,SE,128,0.0,12.0,11,0.00,,,0.00,664.00,VWS V14.00,2013-02-24 18:15:00,
2013-02-24 10:20:00,56.0,2.2,30.11,NE,34,2.0,12.0,11,0.00,,,0.00,677.00,VWS V14.00,2013-02-24 18:20:00,
2013-02-24 10:25:00,56.0,2.2,30.11,NE,38,0.0,12.0,11,0.00,,,0.00,687.00,VWS V14.00,2013-02-24 18:25:00,
2013-02-24 10:30:00,55.9,0.1,30.11,SSW,209,0.0,13.0,10,0.00,,,0.00,698.00,VWS V14.00,2013-02-24 18:30:00,
2013-02-24 10:35:00,56.7,0.8,30.11,NNE,13,0.0,6.0,10,0.00,,,0.00,707.00,VWS V14.00,2013-02-24 18:35:00,
2013-02-24 10:40:00,57.0,1.0,30.11,East,80,0.0,9.0,10,0.00,,,0.00,714.00,VWS V14.00,2013-02-24 18:40:00,
2013-02-24 10:45:00,56.7,0.8,30.10,NE,54,0.0,12.0,10,0.00,,,0.00,715.00,VWS V14.00,2013-02-24 18:45:00,
2013-02-24 10:50:00,56.9,0.9,30.10,ESE,110,1.0,12.0,10,0.00,,,0.00,719.00,VWS V14.00,2013-02-24 18:50:00,
2013-02-24 10:55:00,57.0,1.0,30.11,NE,46,1.0,12.0,10,0.00,,,0.00,726.00,VWS V14.00,2013-02-24 18:55:00,
2013-02-24 11:00:00,58.4,12.4,30.11,SSE,165,5.0,12.0,16,0.00,,,0.00,733.00,VWS V14.00,2013-02-24 19:00:00,
2013-02-24 11:05:00,58.0,14.8,30.11,SSE,159,1.0,6.0,18,0.00,,,0.00,744.00,VWS V14.00,2013-02-24 19:05:00,
2013-02-24 11:10:00,57.8,11.9,30.11,SE,146,0.0,7.0,16,0.00,,,0.00,761.00,VWS V14.00,2013-02-24 19:10:00,
2013-02-24 11:15:00,58.3,16.2,30.11,South,180,1.0,8.0,19,0.00,,,0.00,766.00,VWS V14.00,2013-02-24 19:15:00,
2013-02-24 11:20:00,58.6,18.8,30.11,SE,128,1.0,8.0,21,0.00,,,0.00,745.00,VWS V14.00,2013-02-24 19:20:00,
2013-02-24 11:25:00,58.6,13.9,30.11,SSW,196,6.0,8.0,17,0.00,,,0.00,717.00,VWS V14.00,2013-02-24 19:25:00,
2013-02-24 11:30:00,59.0,15.6,30.11,South,184,4.0,10.0,18,0.00,,,0.00,777.00,VWS V14.00,2013-02-24 19:30:00,
2013-02-24 11:35:00,58.4,10.9,30.11,SSE,160,6.0,12.0,15,0.00,,,0.00,779.00,VWS V14.00,2013-02-24 19:35:00,
2013-02-24 11:40:00,58.4,12.4,30.11,South,186,1.0,12.0,16,0.00,,,0.00,770.00,VWS V14.00,2013-02-24 19:40:00,
2013-02-24 11:45:00,58.7,9.6,30.11,SSE,148,1.0,12.0,14,0.00,,,0.00,758.00,VWS V14.00,2013-02-24 19:45:00,
2013-02-24 11:50:00,58.6,7.9,30.11,WSW,244,0.0,12.0,13,0.00,,,0.00,759.00,VWS V14.00,2013-02-24 19:50:00,
2013-02-24 11:55:00,58.7,6.2,30.10,SSW,213,1.0,12.0,12,0.00,,,0.00,782.00,VWS V14.00,2013-02-24 19:55:00,
2013-02-24 12:00:00,59.3,4.8,30.10,SSW,198,4.0,12.0,11,0.00,,,0.00,795.00,VWS V14.00,2013-02-24 20:00:00,
2013-02-24 12:05:00,60.2,5.5,30.10,ENE,78,0.0,12.0,11,0.00,,,0.00,782.00,VWS V14.00,2013-02-24 20:05:00,
2013-02-24 12:10:00,59.0,2.5,30.10,North,5,0.0,12.0,10,0.00,,,0.00,784.00,VWS V14.00,2013-02-24 20:10:00,
2013-02-24 12:15:00,59.8,3.1,30.10,West,263,1.0,12.0,10,0.00,,,0.00,786.00,VWS V14.00,2013-02-24 20:15:00,
2013-02-24 12:20:00,59.6,3.0,30.10,NE,37,0.0,12.0,10,0.00,,,0.00,789.00,VWS V14.00,2013-02-24 20:20:00,
2013-02-24 12:25:00,60.2,5.5,30.09,ENE,78,0.0,12.0,11,0.00,,,0.00,788.00,VWS V14.00,2013-02-24 20:25:00,
2013-02-24 12:30:00,60.5,3.7,30.09,East,81,0.0,12.0,10,0.00,,,0.00,786.00,VWS V14.00,2013-02-24 20:30:00,
2013-02-24 12:35:00,61.6,4.5,30.09,SSE,157,7.0,9.0,10,0.00,,,0.00,788.00,VWS V14.00,2013-02-24 20:35:00,
2013-02-24 12:42:00,61.5,6.5,30.08,ESE,111,0.0,1.0,11,0.00,,,0.00,780.00,VWS V14.00,2013-02-24 20:42:00,
2013-02-24 12:47:00,61.2,4.2,30.09,SE,127,0.0,12.0,10,0.00,,,0.00,779.00,VWS V14.00,2013-02-24 20:47:00,
2013-02-24 12:52:00,61.3,6.4,30.09,ESE,106,0.0,12.0,11,0.00,,,0.00,768.00,VWS V14.00,2013-02-24 20:52:00,
2013-02-24 12:57:00,61.2,6.3,30.09,SSE,154,0.0,12.0,11,0.00,,,0.00,773.00,VWS V14.00,2013-02-24 20:57:00,
2013-02-24 13:02:00,59.9,5.3,30.08,ESE,109,0.0,1.0,11,0.00,,,0.00,765.00,VWS V14.00,2013-02-24 21:02:00,
2013-02-24 13:07:00,61.3,4.3,30.08,ESE,123,0.0,13.0,10,0.00,,,0.00,759.00,VWS V14.00,2013-02-24 21:07:00,
2013-02-24 13:12:00,61.6,4.5,30.09,NE,38,0.0,13.0,10,0.00,,,0.00,752.00,VWS V14.00,2013-02-24 21:12:00,
2013-02-24 13:17:00,60.5,3.7,30.08,SSE,148,5.0,15.0,10,0.00,,,0.00,749.00,VWS V14.00,2013-02-24 21:17:00,
2013-02-24 13:22:00,61.3,8.3,30.09,SE,138,0.0,15.0,12,0.00,,,0.00,740.00,VWS V14.00,2013-02-24 21:22:00,
2013-02-24 13:27:00,61.0,6.1,30.08,NNE,30,5.0,15.0,11,0.00,,,0.00,737.00,VWS V14.00,2013-02-24 21:27:00,
2013-02-24 13:32:00,59.9,5.3,30.08,East,95,5.0,5.0,11,0.00,,,0.00,726.00,VWS V14.00,2013-02-24 21:32:00,
2013-02-24 13:37:00,59.6,5.1,30.08,SE,128,0.0,10.0,11,0.00,,,0.00,719.00,VWS V14.00,2013-02-24 21:37:00,
2013-02-24 13:42:00,60.7,7.8,30.08,SSE,151,0.0,21.0,12,0.00,,,0.00,710.00,VWS V14.00,2013-02-24 21:42:00,
2013-02-24 13:47:00,60.9,6.1,30.08,NE,35,2.0,21.0,11,0.00,,,0.00,700.00,VWS V14.00,2013-02-24 21:47:00,
2013-02-24 13:52:00,60.5,5.8,30.08,NE,34,0.0,21.0,11,0.00,,,0.00,694.00,VWS V14.00,2013-02-24 21:52:00,
2013-02-24 13:57:00,61.8,4.7,30.08,SE,144,1.0,21.0,10,0.00,,,0.00,686.00,VWS V14.00,2013-02-24 21:57:00,
2013-02-24 14:02:00,61.5,4.4,30.08,ESE,123,0.0,0.0,10,0.00,,,0.00,677.00,VWS V14.00,2013-02-24 22:02:00,
2013-02-24 14:07:00,60.7,3.8,30.08,South,171,2.0,7.0,10,0.00,,,0.00,668.00,VWS V14.00,2013-02-24 22:07:00,
2013-02-24 14:12:00,62.0,4.8,30.07,East,85,4.0,9.0,10,0.00,,,0.00,657.00,VWS V14.00,2013-02-24 22:12:00,
2013-02-24 14:17:00,62.1,4.9,30.08,SSE,151,8.0,14.0,10,0.00,,,0.00,650.00,VWS V14.00,2013-02-24 22:17:00,
2013-02-24 14:22:00,62.0,4.8,30.07,SSE,147,0.0,15.0,10,0.00,,,0.00,636.00,VWS V14.00,2013-02-24 22:22:00,
2013-02-24 14:27:00,62.0,4.8,30.07,ESE,117,0.0,15.0,10,0.00,,,0.00,624.00,VWS V14.00,2013-02-24 22:27:00,
2013-02-24 14:32:00,62.7,3.1,30.08,SSE,151,2.0,15.0,9,0.00,,,0.00,613.00,VWS V14.00,2013-02-24 22:32:00,
2013-02-24 14:37:00,61.0,1.8,30.07,SSE,161,0.0,11.0,9,0.00,,,0.00,603.00,VWS V14.00,2013-02-24 22:37:00,
2013-02-24 14:42:00,61.8,4.7,30.08,SSE,167,1.0,11.0,10,0.00,,,0.00,589.00,VWS V14.00,2013-02-24 22:42:00,
2013-02-24 14:47:00,62.3,2.8,30.08,NE,49,4.0,11.0,9,0.00,,,0.00,575.00,VWS V14.00,2013-02-24 22:47:00,
2013-02-24 14:52:00,62.7,3.1,30.07,SW,223,3.0,11.0,9,0.00,,,0.00,563.00,VWS V14.00,2013-02-24 22:52:00,
2013-02-24 14:57:00,62.4,2.8,30.07,East,80,0.0,11.0,9,0.00,,,0.00,547.00,VWS V14.00,2013-02-24 22:57:00,
2013-02-24 15:02:00,61.5,2.2,30.07,East,94,0.0,11.0,9,0.00,,,0.00,536.00,VWS V14.00,2013-02-24 23:02:00,
2013-02-24 15:07:00,62.3,12.5,30.07,NE,34,0.0,5.0,14,0.00,,,0.00,520.00,VWS V14.00,2013-02-24 23:07:00,
2013-02-24 15:12:00,60.9,9.8,30.07,SE,146,2.0,8.0,13,0.00,,,0.00,508.00,VWS V14.00,2013-02-24 23:12:00,
2013-02-24 15:17:00,62.1,10.7,30.07,SW,219,3.0,8.0,13,0.00,,,0.00,494.00,VWS V14.00,2013-02-24 23:17:00,
2013-02-24 15:22:00,61.8,8.7,30.08,SSW,205,0.0,8.0,12,0.00,,,0.00,478.00,VWS V14.00,2013-02-24 23:22:00,
2013-02-24 15:27:00,62.6,15.8,30.08,WNW,302,4.0,9.0,16,0.00,,,0.00,455.00,VWS V14.00,2013-02-24 23:27:00,
2013-02-24 15:32:00,60.5,18.1,30.08,NW,304,0.0,9.0,19,0.00,,,0.00,443.00,VWS V14.00,2013-02-24 23:32:00,
2013-02-24 15:37:00,60.4,18.0,30.08,SW,221,1.0,8.0,19,0.00,,,0.00,432.00,VWS V14.00,2013-02-24 23:37:00,
2013-02-24 15:42:00,60.7,19.4,30.08,SSE,150,0.0,8.0,20,0.00,,,0.00,418.00,VWS V14.00,2013-02-24 23:42:00,
2013-02-24 15:47:00,60.5,18.1,30.08,SW,236,5.0,8.0,19,0.00,,,0.00,401.00,VWS V14.00,2013-02-24 23:47:00,
2013-02-24 15:52:00,59.8,18.7,30.08,SSE,156,6.0,8.0,20,0.00,,,0.00,383.00,VWS V14.00,2013-02-24 23:52:00,
2013-02-24 15:57:00,59.0,18.0,30.08,SSW,203,0.0,10.0,20,0.00,,,0.00,367.00,VWS V14.00,2013-02-24 23:57:00,
2013-02-24 16:02:00,59.5,17.2,30.08,SW,214,0.0,10.0,19,0.00,,,0.00,352.00,VWS V14.00,2013-02-25 00:02:00,
2013-02-24 16:07:00,59.3,18.3,30.08,SW,225,0.0,6.0,20,0.00,,,0.00,338.00,VWS V14.00,2013-02-25 00:07:00,
2013-02-24 16:12:00,59.5,17.2,30.08,SW,234,4.0,6.0,19,0.00,,,0.00,318.00,VWS V14.00,2013-02-25 00:12:00,
2013-02-24 16:17:00,59.3,18.3,30.08,East,98,0.0,6.0,20,0.00,,,0.00,301.00,VWS V14.00,2013-02-25 00:17:00,
2013-02-24 16:22:00,59.2,18.2,30.08,SE,137,0.0,6.0,20,0.00,,,0.00,276.00,VWS V14.00,2013-02-25 00:22:00,
2013-02-24 16:27:00,59.0,18.0,30.08,SE,136,1.0,10.0,20,0.00,,,0.00,255.00,VWS V14.00,2013-02-25 00:27:00,
2013-02-24 16:32:00,58.9,17.9,30.08,SSE,148,0.0,10.0,20,0.00,,,0.00,232.00,VWS V14.00,2013-02-25 00:32:00,
2013-02-24 16:37:00,58.9,17.9,30.08,ESE,123,0.0,3.0,20,0.00,,,0.00,204.00,VWS V14.00,2013-02-25 00:37:00,
2013-02-24 16:42:00,58.4,18.6,30.09,SE,127,0.0,5.0,21,0.00,,,0.00,183.00,VWS V14.00,2013-02-25 00:42:00,
2013-02-24 16:47:00,58.0,18.3,30.08,SE,146,2.0,6.0,21,0.00,,,0.00,163.00,VWS V14.00,2013-02-25 00:47:00,
2013-02-24 16:52:00,57.3,17.7,30.09,SSE,161,6.0,6.0,21,0.00,,,0.00,141.00,VWS V14.00,2013-02-25 00:52:00,
2013-02-24 16:57:00,56.7,17.2,30.09,SE,142,0.0,6.0,21,0.00,,,0.00,121.00,VWS V14.00,2013-02-25 00:57:00,
2013-02-24 17:02:00,57.0,18.5,30.09,SE,136,0.0,6.0,22,0.00,,,0.00,100.00,VWS V14.00,2013-02-25 01:02:00,
2013-02-24 17:07:00,56.6,18.2,30.09,SE,136,0.0,4.0,22,0.00,,,0.00,81.00,VWS V14.00,2013-02-25 01:07:00,
2013-02-24 17:12:00,56.3,16.9,30.10,SSE,163,3.0,7.0,21,0.00,,,0.00,51.00,VWS V14.00,2013-02-25 01:12:00,
2013-02-24 17:17:00,55.4,17.2,30.10,SSE,155,0.0,7.0,22,0.00,,,0.00,28.00,VWS V14.00,2013-02-25 01:17:00,
2013-02-24 17:22:00,55.1,17.0,30.10,SSE,155,0.0,7.0,22,0.00,,,0.00,37.00,VWS V14.00,2013-02-25 01:22:00,
2013-02-24 17:27:00,55.1,18.0,30.10,SSE,155,0.0,7.0,23,0.00,,,0.00,19.00,VWS V14.00,2013-02-25 01:27:00,
2013-02-24 17:32:00,55.3,18.1,30.10,SSE,155,0.0,7.0,23,0.00,,,0.00,16.00,VWS V14.00,2013-02-25 01:32:00,
2013-02-24 17:37:00,55.1,18.0,30.10,SSE,156,0.0,1.0,23,0.00,,,0.00,12.00,VWS V14.00,2013-02-25 01:37:00,
2013-02-24 17:42:00,54.5,17.5,30.10,SSE,155,0.0,2.0,23,0.00,,,0.00,9.00,VWS V14.00,2013-02-25 01:42:00,
2013-02-24 17:47:00,54.4,18.4,30.10,SSE,155,0.0,0.0,24,0.00,,,0.00,5.00,VWS V14.00,2013-02-25 01:47:00,
2013-02-24 17:52:00,53.6,17.7,30.11,SSE,155,0.0,5.0,24,0.00,,,0.00,0.00,VWS V14.00,2013-02-25 01:52:00,
2013-02-24 17:57:00,52.8,18.9,30.11,SSE,155,0.0,5.0,26,0.00,,,0.00,0.00,VWS V14.00,2013-02-25 01:57:00,
2013-02-24 18:02:00,51.1,18.3,30.11,SSE,155,0.0,5.0,27,0.00,,,0.00,0.00,VWS V14.00,2013-02-25 02:02:00,
2013-02-24 18:07:00,49.8,17.2,30.11,SSE,155,0.0,0.0,27,0.00,,,0.00,0.00,VWS V14.00,2013-02-25 02:07:00,
2013-02-24 18:12:00,48.6,17.8,30.11,SSE,155,0.0,0.0,29,0.00,,,0.00,0.00,VWS V14.00,2013-02-25 02:12:00,
2013-02-24 18:17:00,47.9,18.0,30.12,SSE,155,0.0,0.0,30,0.00,,,0.00,0.00,VWS V14.00,2013-02-25 02:17:00,
2013-02-24 18:22:00,47.4,17.5,30.12,SSE,155,0.0,0.0,30,0.00,,,0.00,0.00,VWS V14.00,2013-02-25 02:22:00,
2013-02-24 18:27:00,47.1,17.3,30.12,SSE,155,0.0,0.0,30,0.00,,,0.00,0.00,VWS V14.00,2013-02-25 02:27:00,
2013-02-24 18:32:00,46.8,17.8,30.12,SSE,155,0.0,0.0,31,0.00,,,0.00,0.00,VWS V14.00,2013-02-25 02:32:00,
2013-02-24 18:37:00,46.5,17.5,30.13,SSE,155,0.0,0.0,31,0.00,,,0.00,0.00,VWS V14.00,2013-02-25 02:37:00,
2013-02-24 18:42:00,46.5,17.5,30.12,SSE,155,0.0,0.0,31,0.00,,,0.00,0.00,VWS V14.00,2013-02-25 02:42:00,
2013-02-24 18:47:00,46.8,17.0,30.13,SSE,155,0.0,0.0,30,0.00,,,0.00,0.00,VWS V14.00,2013-02-25 02:47:00,
2013-02-24 18:52:00,47.3,16.7,30.13,SSE,155,0.0,0.0,29,0.00,,,0.00,0.00,VWS V14.00,2013-02-25 02:52:00,
2013-02-24 18:57:00,46.8,17.0,30.13,SSE,155,0.0,1.0,30,0.00,,,0.00,0.00,VWS V14.00,2013-02-25 02:57:00,
2013-02-24 19:02:00,46.2,17.2,30.13,SSE,155,0.0,1.0,31,0.00,,,0.00,0.00,VWS V14.00,2013-02-25 03:02:00,
2013-02-24 19:07:00,45.8,17.6,30.14,SSE,155,0.0,0.0,32,0.00,,,0.00,0.00,VWS V14.00,2013-02-25 03:07:00,
2013-02-24 19:12:00,45.5,17.4,30.14,SSE,155,0.0,0.0,32,0.00,,,0.00,0.00,VWS V14.00,2013-02-25 03:12:00,
2013-02-24 19:17:00,45.2,17.8,30.14,SSE,155,0.0,1.0,33,0.00,,,0.00,0.00,VWS V14.00,2013-02-25 03:17:00,
2013-02-24 19:22:00,44.9,18.2,30.14,SSE,155,0.0,1.0,34,0.00,,,0.00,0.00,VWS V14.00,2013-02-25 03:22:00,
2013-02-24 19:27:00,44.8,18.2,30.14,SSE,155,0.0,1.0,34,0.00,,,0.00,0.00,VWS V14.00,2013-02-25 03:27:00,
2013-02-24 19:32:00,44.9,17.6,30.14,SSE,155,0.0,1.0,33,0.00,,,0.00,0.00,VWS V14.00,2013-02-25 03:32:00,
2013-02-24 19:37:00,44.8,17.5,30.14,SSE,155,0.0,1.0,33,0.00,,,0.00,0.00,VWS V14.00,2013-02-25 03:37:00,
2013-02-24 19:42:00,44.6,18.0,30.15,SSE,155,0.0,1.0,34,0.00,,,0.00,0.00,VWS V14.00,2013-02-25 03:42:00,
2013-02-24 19:47:00,44.9,17.6,30.14,SSE,153,0.0,1.0,33,0.00,,,0.00,0.00,VWS V14.00,2013-02-25 03:47:00,
2013-02-24 19:52:00,45.2,17.1,30.14,SSE,153,0.0,1.0,32,0.00,,,0.00,0.00,VWS V14.00,2013-02-25 03:52:00,
2013-02-24 19:57:00,45.5,15.1,30.15,SSE,153,0.0,1.0,29,0.00,,,0.00,0.00,VWS V14.00,2013-02-25 03:57:00,
2013-02-24 20:02:00,45.4,15.8,30.15,SSE,153,0.0,1.0,30,0.00,,,0.00,0.00,VWS V14.00,2013-02-25 04:02:00,
2013-02-24 20:07:00,44.9,16.8,30.15,SSE,148,1.0,2.0,32,0.00,,,0.00,0.00,VWS V14.00,2013-02-25 04:07:00,
2013-02-24 20:12:00,44.5,17.9,30.15,SE,142,0.0,2.0,34,0.00,,,0.00,0.00,VWS V14.00,2013-02-25 04:12:00,
2013-02-24 20:17:00,44.1,18.2,30.16,SE,142,0.0,2.0,35,0.00,,,0.00,0.00,VWS V14.00,2013-02-25 04:17:00,
2013-02-24 20:22:00,43.9,17.4,30.16,SE,140,0.0,2.0,34,0.00,,,0.00,0.00,VWS V14.00,2013-02-25 04:22:00,
2013-02-24 20:27:00,44.1,18.2,30.16,SE,140,0.0,2.0,35,0.00,,,0.00,0.00,VWS V14.00,2013-02-25 04:27:00,
2013-02-24 20:32:00,43.9,18.0,30.16,SE,140,0.0,2.0,35,0.00,,,0.00,0.00,VWS V14.00,2013-02-25 04:32:00,
2013-02-24 20:37:00,43.8,17.3,30.17,SE,140,0.0,1.0,34,0.00,,,0.00,0.00,VWS V14.00,2013-02-25 04:37:00,
2013-02-24 20:42:00,43.9,17.4,30.17,SE,140,0.0,1.0,34,0.00,,,0.00,0.00,VWS V14.00,2013-02-25 04:42:00,
2013-02-24 20:47:00,44.3,17.0,30.17,SE,140,0.0,1.0,33,0.00,,,0.00,0.00,VWS V14.00,2013-02-25 04:47:00,
2013-02-24 20:52:00,45.2,16.4,30.17,SE,140,0.0,1.0,31,0.00,,,0.00,0.00,VWS V14.00,2013-02-25 04:52:00,
2013-02-24 20:57:00,45.8,16.1,30.17,SE,140,0.0,1.0,30,0.00,,,0.00,0.00,VWS V14.00,2013-02-25 04:57:00,
2013-02-24 21:00:00,46.0,17.1,30.17,SE,140,0.0,1.0,31,0.00,,,0.00,0.00,VWS V14.00,2013-02-25 05:00:00,
2013-02-24 21:05:00,45.4,16.5,30.17,SE,140,0.0,1.0,31,0.00,,,0.00,0.00,VWS V14.00,2013-02-25 05:05:00,
2013-02-24 21:10:00,45.1,16.3,30.17,SE,140,0.0,1.0,31,0.00,,,0.00,0.00,VWS V14.00,2013-02-25 05:10:00,
2013-02-24 21:15:00,45.2,16.4,30.18,SE,140,0.0,1.0,31,0.00,,,0.00,0.00,VWS V14.00,2013-02-25 05:15:00,
2013-02-24 21:20:00,44.6,17.3,30.18,SE,140,0.0,1.0,33,0.00,,,0.00,0.00,VWS V14.00,2013-02-25 05:20:00,
2013-02-24 21:25:00,44.5,16.5,30.18,ENE,69,0.0,3.0,32,0.00,,,0.00,0.00,VWS V14.00,2013-02-25 05:25:00,
2013-02-24 21:30:00,45.2,15.6,30.18,ENE,67,0.0,3.0,30,0.00,,,0.00,0.00,VWS V14.00,2013-02-25 05:30:00,
2013-02-24 21:35:00,45.7,16.1,30.19,ENE,67,0.0,0.0,30,0.00,,,0.00,0.00,VWS V14.00,2013-02-25 05:35:00,
2013-02-24 21:40:00,45.2,16.4,30.19,ENE,67,0.0,1.0,31,0.00,,,0.00,0.00,VWS V14.00,2013-02-25 05:40:00,
2013-02-24 21:45:00,44.8,16.8,30.19,ENE,67,0.0,1.0,32,0.00,,,0.00,0.00,VWS V14.00,2013-02-25 05:45:00,
2013-02-24 21:50:00,44.5,16.5,30.19,ENE,67,0.0,1.0,32,0.00,,,0.00,0.00,VWS V14.00,2013-02-25 05:50:00,
2013-02-24 21:55:00,44.9,15.4,30.20,ENE,67,0.0,2.0,30,0.00,,,0.00,0.00,VWS V14.00,2013-02-25 05:55:00,
2013-02-24 22:00:00,45.4,16.5,30.20,ENE,67,0.0,2.0,31,0.00,,,0.00,0.00,VWS V14.00,2013-02-25 06:00:00,
2013-02-24 22:05:00,44.6,16.6,30.20,ENE,67,0.0,1.0,32,0.00,,,0.00,0.00,VWS V14.00,2013-02-25 06:05:00,
2013-02-24 22:10:00,44.9,15.4,30.20,ENE,67,1.0,2.0,30,0.00,,,0.00,0.00,VWS V14.00,2013-02-25 06:10:00,
2013-02-24 22:15:00,45.5,15.1,30.20,NE,37,0.0,4.0,29,0.00,,,0.00,0.00,VWS V14.00,2013-02-25 06:15:00,
2013-02-24 22:20:00,45.5,15.9,30.20,NE,37,0.0,4.0,30,0.00,,,0.00,0.00,VWS V14.00,2013-02-25 06:20:00,
2013-02-24 22:25:00,44.8,16.0,30.20,NE,37,0.0,4.0,31,0.00,,,0.00,0.00,VWS V14.00,2013-02-25 06:25:00,
2013-02-24 22:30:00,44.8,15.3,30.19,NE,37,0.0,4.0,30,0.00,,,0.00,0.00,VWS V14.00,2013-02-25 06:30:00,
2013-02-24 22:35:00,45.5,14.3,30.19,NE,37,0.0,4.0,28,0.00,,,0.00,0.00,VWS V14.00,2013-02-25 06:35:00,
2013-02-24 22:40:00,45.7,15.3,30.19,NE,37,0.0,4.0,29,0.00,,,0.00,0.00,VWS V14.00,2013-02-25 06:40:00,
2013-02-24 22:45:00,45.1,14.8,30.19,NE,37,0.0,4.0,29,0.00,,,0.00,0.00,VWS V14.00,2013-02-25 06:45:00,
2013-02-24 22:50:00,44.8,15.3,30.19,NE,37,0.0,4.0,30,0.00,,,0.00,0.00,VWS V14.00,2013-02-25 06:50:00,
2013-02-24 22:55:00,44.8,15.3,30.19,NE,37,0.0,4.0,30,0.00,,,0.00,0.00,VWS V14.00,2013-02-25 06:55:00,
2013-02-24 23:00:00,44.5,15.0,30.19,NE,37,0.0,4.0,30,0.00,,,0.00,0.00,VWS V14.00,2013-02-25 07:00:00,
2013-02-24 23:05:00,44.5,14.2,30.20,NE,37,0.0,0.0,29,0.00,,,0.00,0.00,VWS V14.00,2013-02-25 07:05:00,
2013-02-24 23:10:00,44.9,14.6,30.19,NE,37,0.0,0.0,29,0.00,,,0.00,0.00,VWS V14.00,2013-02-25 07:10:00,
2013-02-24 23:15:00,45.1,14.0,30.20,NE,37,0.0,0.0,28,0.00,,,0.00,0.00,VWS V14.00,2013-02-25 07:15:00,
2013-02-24 23:20:00,44.6,13.5,30.20,NE,37,0.0,1.0,28,0.00,,,0.00,0.00,VWS V14.00,2013-02-25 07:20:00,
2013-02-24 23:25:00,44.1,15.4,30.20,NE,37,0.0,1.0,31,0.00,,,0.00,0.00,VWS V14.00,2013-02-25 07:25:00,
2013-02-24 23:30:00,43.6,15.0,30.21,NE,37,0.0,1.0,31,0.00,,,0.00,0.00,VWS V14.00,2013-02-25 07:30:00,
2013-02-24 23:35:00,44.1,13.9,30.21,NE,37,0.0,1.0,29,0.00,,,0.00,0.00,VWS V14.00,2013-02-25 07:35:00,
2013-02-24 23:40:00,44.3,13.3,30.21,NE,37,0.0,1.0,28,0.00,,,0.00,0.00,VWS V14.00,2013-02-25 07:40:00,
2013-02-24 23:45:00,44.5,13.4,30.21,NE,37,0.0,1.0,28,0.00,,,0.00,0.00,VWS V14.00,2013-02-25 07:45:00,
2013-02-24 23:50:00,44.8,13.7,30.21,NE,37,0.0,1.0,28,0.00,,,0.00,0.00,VWS V14.00,2013-02-25 07:50:00,
2013-02-24 23:55:00,45.1,12.3,30.21,NE,37,0.0,1.0,26,0.00,,,0.00,0.00,VWS V14.00,2013-02-25 07:55:00,